Location: Cella
(44.7333°N, 10.5667°E)
Time: 08:45:47
(UTC+00:00)

Cosmos 1777 Rocket - Pass Details

Date: 21 June 2021
Orbit: 757 x 776 km, 74.0° (Epoch: 28 July)

Event Time Altitude Azimuth Distance (km) Brightness Sun altitude
Rises 22:36:59 0° 337° (NNW) 3,261 8.7 -21.1°
Reaches altitude 10° 22:39:23 10° 335° (NNW) 2,332 7.6 -21.2°
Maximum altitude 22:44:39 72° 252° (WSW) 818 4.0 -21.4°
Enters shadow 22:46:05 48° 184° (S) 1,011 4.2 -21.4°
